Torna al catalogo

DONGPO 16

AttivoScienzaSSO
NORAD 68201·PAYLOAD·🇨🇳 China
Questo nome del satellite non è ancora stato confermato da fonti ufficiali.

Lanciato Mar 16, 2026 da Jiuquan Satellite Launch Center

Loading…

Prossimi Passaggi (prossime 24 ore)

TLE

AggiornatoSource: Space-Track

Epoca: Sep 14, 2026, 14:54 UTC

1 68201U 26052D   26257.62141995  .00004960  00000-0  29021-3 0  9997
2 68201  97.5256 331.1803 0011245   9.0484 351.0947 15.12255352 27560

Traccia DONGPO 16 in tempo reale con AllMySat

Download on the App Store